Regional Weather Roundup
Issued by NWS

Home | Current Version | Previous Version | Text Only | Print | Product List | Glossary Off
Versions: 1 2 3 4 5 6 7 8 9 10 11 12 13 14 15 16 17 18 19 20 21 22 23 24 25 26 27 28 29 30 31 32 33 34 35 36 37 38 39 40 41 42 43 44 45 46 47 48 49 50

000
ASUS43 KOAX 270002
RWRNE

WEATHER ROUNDUP FOR NEBRASKA
NATIONAL WEATHER SERVICE OMAHA NE
600 PM CST WED NOV 26 2014

NOTES: SATELLITE DATA IS BEING USED TO AUGMENT CLOUD COVER ABOVE
       12000 FEET.
       "FAIR" INDICATES FEW OR NO CLOUDS BELOW 12,000 FEET WITH NO
       SIGNIFICANT WEATHER AND/OR OBSTRUCTIONS TO VISIBILITY.

  * THESE STATIONS DO NOT REPORT WEATHER SUCH AS RAIN...SNOW OR FOG.

NEZ001>004-019>022-054>056-270100-
NEBRASKA PANHANDLE

CITY           SKY/WX    TMP DP  RH WIND       PRES   REMARKS
SCOTTSBLUFF    LGT SNOW  29  28  96 E3        30.27R FOG
6HR MIN TEMP:  29; 6HR MAX TEMP:  31; 6HR PCP:  0.09;

ALLIANCE       CLOUDY    29  26  89 SW6       30.25S WCI  23
6HR MIN TEMP:  29; 6HR MAX TEMP:  31; 6HR PCP: TRACE;

CHADRON        CLOUDY   N/A N/A N/A SW5       30.27R
SIDNEY         CLOUDY    27  24  89 SE5       30.26F WCI  22
6HR MIN TEMP:  27; 6HR MAX TEMP:  30; 6HR PCP:  0.02;

$$

NEZ057>060-069>072-079>082-270100-
SOUTHWEST NEBRASKA

CITY           SKY/WX    TMP DP  RH WIND       PRES   REMARKS
NORTH PLATTE   CLOUDY    30  18  60 CALM      30.31R
6HR MIN TEMP:  30; 6HR MAX TEMP:  35;

IMPERIAL       CLOUDY    31  27  85 CALM      30.32R
6HR MIN TEMP:  31; 6HR MAX TEMP:  35; 6HR PCP: TRACE;

LEXINGTON      CLOUDY    31  20  63 N3        30.34R
MCCOOK         CLOUDY    35  20  54 NW6       30.33R WCI  30
6HR MIN TEMP:  34; 6HR MAX TEMP:  38;

$$

NEZ005>010-023>029-035>040-094-270100-
NORTH CENTRAL NEBRASKA

CITY           SKY/WX    TMP DP  RH WIND       PRES   REMARKS
VALENTINE      CLOUDY    26  18  71 NE3       30.31R
6HR MIN TEMP:  24; 6HR MAX TEMP:  28;

BROKEN BOW     CLOUDY    27  18  69 N6        30.32R WCI  20
6HR MIN TEMP:  27; 6HR MAX TEMP:  32;

ORD            CLOUDY    25  16  68 N12       30.34R WCI  14
6HR MIN TEMP:  25; 6HR MAX TEMP:  29;

$$

NEZ041-046>049-061>064-073>077-083>087-270100-
SOUTH CENTRAL NEBRASKA

CITY           SKY/WX    TMP DP  RH WIND       PRES   REMARKS
GRAND ISLAND   CLOUDY    26  17  68 N15       30.35R WCI  14
6HR MIN TEMP:  26; 6HR MAX TEMP:  31;

AURORA         CLOUDY    26  17  67 N13       30.34S WCI  15
HASTINGS       CLOUDY    28  18  66 N9        30.34R WCI  19
6HR MIN TEMP:  28; 6HR MAX TEMP:  32;

KEARNEY *      CLOUDY    28  16  59 NW8       30.35R WCI  20
YORK           CLOUDY    27  18  69 N14G20    30.34R WCI  15
$$

NEZ011>018-030>034-042>045-270100-
NORTHEAST NEBRASKA

CITY           SKY/WX    TMP DP  RH WIND       PRES   REMARKS
NORFOLK        CLOUDY    21  15  78 NW15      30.35R WCI   8
6HR MIN TEMP:  21; 6HR MAX TEMP:  25;

BLAIR          CLOUDY    25  19  78 NW21G31   30.30R WCI  10
COLUMBUS *     MOCLDY    23  14  68 NW14      30.36R WCI  11
TEKAMAH        CLOUDY    24  17  74 NW21      30.35R WCI   9
6HR MIN TEMP:  24; 6HR MAX TEMP:  31;

$$

NEZ050>053-065>068-078-088>093-270100-
SOUTHEAST NEBRASKA

CITY           SKY/WX    TMP DP  RH WIND       PRES   REMARKS
LINCOLN        CLOUDY    27  18  69 N23G29    30.35R WCI  12
6HR MIN TEMP:  27; 6HR MAX TEMP:  31;

OMAHA EPPLEY   CLOUDY    26  20  77 N23G32    30.33R WCI  11
6HR MIN TEMP:  26; 6HR MAX TEMP:  31; 6HR PCP: TRACE;

FALLS CITY     CLOUDY    29  21  72 NW22G29   30.27R WCI  15
6HR MIN TEMP:  29; 6HR MAX TEMP:  35;

PLATTSMOUTH    CLOUDY    27  20  77 NW18G25   30.29R WCI  13
$$

NEZ044-045-051>053-067-270100-
OMAHA AREA

CITY           SKY/WX    TMP DP  RH WIND       PRES   REMARKS
OMAHA EPPLEY   CLOUDY    26  20  77 N23G32    30.33R WCI  11
6HR MIN TEMP:  26; 6HR MAX TEMP:  31; 6HR PCP: TRACE;

BLAIR          CLOUDY    25  19  78 NW21G31   30.30R WCI  10
OFFUTT AFB     CLOUDY    27  20  75 N21       30.31R WCI  13
PLATTSMOUTH    CLOUDY    27  20  77 NW18G25   30.29R WCI  13
$$



USA.gov is the U.S. government's official web portal to all federal, state and local government web resources and services.